Flag for U.S.A. Weather past 2 weeks in Springfield, Massachusetts, U.S.A.

Now
65 °F

Sunny.


Feels Like: 65 °F
Forecast: 60 / 78 °F
Wind: 6 mph from Northwest

Location: Barnes Municipal Airport

Current Time: Jul 29, 2014 at 8:53:24 AM

Latest Report: Jul 29, 2014 at 7:53 AM


Visibility: 10 mi

Pressure: 29.79 "Hg

Humidity: 68%

Dew point: 54 °F

Location of SpringfieldLocation

Historic Weather in Springfield — Graph

°F

Springfield temperature yesterday

Maximum temperature yesterday: 83 °F (at 2:53 PM)
Minimum temperature yesterday: 65 °F (at 12:53 AM)
Average temperature yesterday: 71 °F

Past Weeks' High & Low Weather Summary

 TemperatureHumidityPressure
High92 °F (Jul 23, 2:53 PM)94% (Jul 15, 2:53 AM)30.27 "Hg (Jul 15, 2:53 AM)
Low55 °F (Jul 25, 4:53 AM)29% (Jul 18, 3:53 PM)29.43 "Hg (Jul 28, 3:53 PM)
Average71 °F73%29.94 "Hg
* Reported Jul 14 7:53 AM — Jul 29 7:53 AM, Springfield, Weather by CustomWeather, © 2014

Note: Actual official high and low records may vary slightly from our data, if they occured in-between our weather recording intervals... More about our weather records

Advertising

Springfield weather history for previous 24 hours

 ConditionsComfort  
Time TempWeatherWind HumidityBarometerVisibility
7:53 AM
Jul 29
65 °FSunny.6 mph68%29.79 "Hg10 mi
6:53 AM64 °FPartly sunny.No wind73%29.78 "Hg10 mi
5:53 AM63 °FMostly cloudy.7 mph73%29.74 "Hg10 mi
4:53 AM64 °FMostly cloudy.6 mph70%29.72 "Hg10 mi
3:53 AM64 °FPassing clouds.9 mph73%29.69 "Hg10 mi
2:53 AM65 °FMostly cloudy.9 mph73%29.68 "Hg10 mi
2:03 AM66 °FMostly cloudy.8 mph70%29.67 "Hg10 mi
1:53 AM65 °FMostly cloudy.12 mph76%29.65 "Hg10 mi
12:53 AM65 °FClear.7 mph78%29.62 "Hg10 mi
11:53 PM
Jul 28
66 °FPassing clouds.7 mph78%29.61 "Hg10 mi
10:53 PM67 °FPassing clouds.12 mph79%29.59 "Hg10 mi
9:53 PM68 °FLight rain. Overcast.6 mph84%29.57 "Hg10 mi
8:53 PM71 °FBroken clouds.No wind71%29.55 "Hg10 mi
7:53 PM72 °FSunny.7 mph73%29.52 "Hg10 mi
6:53 PM73 °FBroken clouds.10 mph69%29.49 "Hg10 mi
5:54 PM71 °FBroken clouds.12 mph73%29.51 "Hg10 mi
4:53 PM81 °FLight rain. Scattered clouds.13 mph60%29.44 "Hg10 mi
3:53 PM83 °FBroken clouds.13 mph63%29.43 "Hg10 mi
2:53 PM83 °FScattered clouds.13 mph59%29.44 "Hg10 mi
1:53 PM79 °FScattered clouds.7 mph69%29.46 "Hg10 mi
12:53 PM78 °FOvercast.9 mph74%29.50 "Hg10 mi
11:53 AM74 °FMostly cloudy.9 mph82%29.52 "Hg10 mi
10:53 AM73 °FOvercast.13 mph84%29.53 "Hg10 mi
10:02 AM73 °FMostly cloudy.10 mph84%29.53 "Hg10 mi
9:53 AM73 °FBroken clouds.8 mph84%29.53 "Hg10 mi
8:53 AM70 °FFog.No wind93%29.52 "Hg4 mi
Weather by CustomWeather, © 2014

See weather overviewHow to use our weather pages